Location: Unspecified
(0.0000°N, 0.0000°E)
Time: 23:44:35
(UTC+00:00)

Ablestar 020 - Visible Passes

Search period start: 17 May 2026 00:00
Search period end: 27 May 2026 00:00
Orbit: 1091 x 1157 km, 90.1° (Epoch: 17 May)

Date Brightness Start Highest point End Pass type
(mag) Time Alt. Az. Time Alt. Az. Time Alt. Az.
17 May 7.3 04:12:16 10° SSE 04:18:47 46° E 04:25:11 10° NNE visible
18 May 8.5 03:35:58 10° SE 03:40:53 21° E 03:45:44 10° NE visible
18 May 6.8 05:22:00 10° SSW 05:28:07 35° W 05:34:11 10° NNW visible
19 May 6.2 04:43:23 10° S 04:50:15 76° W 04:56:59 10° N visible
20 May 7.0 04:05:44 10° SSE 04:12:21 52° E 04:18:51 10° NNE visible
21 May 8.3 03:29:12 10° SE 03:34:27 24° E 03:39:38 10° NE visible
21 May 6.9 05:15:47 10° SSW 05:21:40 31° W 05:27:30 10° NW visible
22 May 6.2 04:37:01 10° S 04:43:48 68° W 04:50:30 10° NNW visible
23 May 6.8 03:59:13 10° SSE 04:05:55 58° E 04:12:30 10° N visible
24 May 8.0 03:22:29 10° SE 03:28:01 27° E 03:33:29 10° NNE visible
24 May 7.0 05:09:37 10° SSW 05:15:14 28° W 05:20:48 10° NW visible
25 May 8.9 02:48:29 10° E 02:50:08 11° E 02:51:47 10° ENE visible
25 May 6.2 04:30:40 10° S 04:37:22 60° W 04:43:58 10° NNW visible
26 May 6.5 03:52:44 10° SSE 03:59:29 65° E 04:06:07 10° N visible
